22P/Kopff (2022)

Japanese version
Home page
Updated on March 4, 2023

---------------------------------------------------------------------

* Profile

* Pictures

* Orbital Elements

Epoch 2022 Aug. 9.0 TT = JDT 2459800.5
T 2022 Mar. 18.14966 TT                                 Rudenko
q   1.5523745            (2000.0)            P               Q
n   0.15434359     Peri.  163.03426     +0.24042543     +0.96806854
a   3.4419956      Node   120.82677     -0.89989003     +0.24971092
e   0.5489900      Incl.    4.74171     -0.36385925     +0.02208525
P   6.39
>From 4770 observations 2008 Jan. 30-2022 Nov. 3, mean residual 0".7.
     Nongravitational parameters A1 = +0.05, A2 = -0.0395.

* Finding Charts

* Magnitudes Graph

        H = 14.5  G = 0.15               [    ,-525]  (             - 2020 Oct.  9)
        m1 = 5.3 + 5 log d + 21.0 log r  [-525, 550]  (2020 Oct.  9 - 2023 Sept.19)
        H = 14.5  G = 0.15               [ 550,    ]  (2023 Sept.19 -             )

---------------------------------------------------------------------

The orbital elements are published on M.P.E.C. 2022-V95.
The charts are made with StellaNavigator Ver.10 (AstroArts).
The magnitudes graphs are made with Comet for Windows.

---------------------------------------------------------------------

Copyright(C) Seiichi Yoshida (comet@aerith.net). All rights reserved.